Location: Borbetomagus
(49.6328°N, 8.3592°E)
Time: 23:50:29
(UTC+00:00)

Cosmos 1315 Rocket - Pass Details

Date: 19 May 2025
Orbit: 498 x 525 km, 81.2° (Epoch: 22 June)

Event Time Altitude Azimuth Distance (km) Brightness Sun altitude
Exits shadow 20:56:06 21° 158° (SSE) 1,211 4.0 -13.2°
Maximum altitude 20:58:19 44° 96° (E) 734 3.1 -13.4°
Drops below altitude 10° 21:02:02 10° 24° (NNE) 1,775 5.9 -13.7°
Sets 21:04:15 0° 18° (NNE) 2,665 6.9 -13.9°
